Regional Weather Roundup
Issued by NWS Cleveland, OH

Home | Current Version | Previous Version | Graphics & Text | Print | Product List | Glossary On
Versions: 1 2 3 4 5 6 7 8 9 10 11 12 13 14 15 16 17 18 19 20 21 22 23 24 25 26 27 28 29 30 31 32 33 34 35 36 37 38 39 40 41 42 43 44 45 46 47 48 49 50
000
ASUS41 KCLE 250010
RWRCLE
OHIO REGIONAL WEATHER ROUNDUP
NATIONAL WEATHER SERVICE CLEVELAND, OH
800 PM EDT THU JUL 24 2014

NOTE: "FAIR" INDICATES FEW OR NO CLOUDS BELOW 12,000 FEET WITH NO
SIGNIFICANT WEATHER AND/OR OBSTRUCTIONS TO VISIBILITY.

OHZ001>008-015>018-024>027-034-035-043-044-250100-
   NORTHWEST OHIO

CITY           SKY/WX    TMP DP  RH WIND       PRES   REMARKS
DEFIANCE       CLOUDY    74  50  42 CALM      30.06R
FINDLAY        CLEAR     71  51  49 E7        30.05R
TOLEDO EXPRESS PTCLDY    69  52  54 S3        30.05R
TOLEDO EXEC    CLEAR     71  49  45 E5        30.06R
LIMA           PTCLDY    70  52  52 NE7       30.07R
$$

OHZ009>014-019>023-028>033-038-089-250100-
   NORTHEAST OHIO

CITY           SKY/WX    TMP DP  RH WIND       PRES   REMARKS
CLE-HOPKINS    CLEAR     68  49  50 N12       30.06S
CLE-LAKEFRONT  CLEAR     68  51  54 NE7       30.02F
CUY CO. ARPT   CLEAR     68  52  56 NE13      30.04F
LORAIN-ELYRIA  CLEAR     71  50  47 NE5       30.05S
ASHTABULA      CLEAR     67  50  54 CALM      30.04F
AKRON-CANTON   PTCLDY    68  49  50 NE10      30.03S
WOOSTER        CLEAR     67  48  50 N7        30.04F
MANSFIELD      CLEAR     67  49  52 N7        30.05S
YOUNGSTOWN     CLEAR     67  49  52 N8        30.03S
$$

OHZ042-051>053-060>062-070>072-077>081-250100-
  SOUTHWEST OHIO

CITY           SKY/WX    TMP DP  RH WIND       PRES   REMARKS
CINC-COVINGTON PTCLDY    74  51  44 N9        30.03R
CINC-LUNKEN    CLEAR     73  55  53 NE3       30.02R
HAMILTON       PTCLDY    74  56  53 N6        30.04R
DAYTON         PTCLDY    71  53  52 N9        30.06R
WRIGHT-PAT AFB CLEAR     72  53  51 N6        30.04R
DAYTON GENERAL CLEAR     71  54  54 N7        30.04R
WILMINGTON     CLEAR     71  55  56 N6        30.03R
$$

OHZ036-037-039>041-045>050-054>059-063>069-073>076-082>088-250100-
  CENTRAL AND SOUTHEAST OHIO

CITY           SKY/WX    TMP DP  RH WIND       PRES   REMARKS
COLUMBUS       PTCLDY    74  53  48 NE9       30.00S
OSU AIRPORT    CLEAR     70  52  52 N12       30.02R
BOLTON FIELD   CLEAR     70  56  60 N9        30.02S
RICKENBACK AFB PTCLDY    74  50  42 N8        30.00R
NEWARK         CLEAR     72  53  51 N5        30.00S
MARION         CLEAR     68  49  50 NE10      30.04S
LANCASTER      CLOUDY    73  56  54 NE6       30.00F
ZANESVILLE     CLEAR     71  56  58 N5        30.00F
NEW PHILLY     CLEAR     70  53  54 NE5       30.01S
$$



USA.gov is the U.S. government's official web portal to all federal, state and local government web resources and services.